Simultaneous Nadir Overpasses (SNOs) Predictions

Prediction of SNOs between LANDSAT-8 and NOAA-19 Satellite Orbit:

Table of predicted SNOs for the next 14.0 days since TLE Epoch: 6/5/2021
Index Date (LANDSAT-8) Time (LANDSAT-8) Lat,Lon (LANDSAT-8) SZA (LANDSAT-8 ) Date (NOAA-19) Time (NOAA-19) Lat,Lon (NOAA-19) SZA (NOAA-19 ) Distance(km) Time Diff (sec)
1 06/07/2021 09:41:22 -80.51,-113.05 120.73 06/07/2021 09:40:18 -80.56,-117.47 121.10 80.91 64
2 06/07/2021 10:30:52 80.39, 53.39 59.06 06/07/2021 10:31:13 80.38, 53.39 59.07 0.48 21
3 06/09/2021 16:04:37 -80.40, 150.06 121.12 06/09/2021 16:04:18 -80.40, 149.99 121.14 1.43 19
4 06/11/2021 21:38:21 80.41,-113.22 58.74 06/11/2021 21:37:33 80.40,-113.36 58.70 2.96 48
5 06/11/2021 22:27:49 -80.38, 54.11 121.32 06/11/2021 22:28:28 -80.40, 54.01 121.30 2.44 39
6 06/14/2021 04:01:33 80.40, 150.80 58.57 06/14/2021 04:01:42 80.39, 150.86 58.58 1.13 9
7 06/16/2021 09:35:18 -80.41,-112.52 121.51 06/16/2021 09:34:48 -80.41,-112.62 121.53 1.86 30
8 06/16/2021 10:24:44 80.41, 55.12 58.49 06/16/2021 10:25:51 80.39, 55.04 58.49 2.68 67
9 06/18/2021 15:09:02 80.41, -15.89 58.44 06/18/2021 15:08:01 80.40, -15.75 58.42 2.75 61



Historial Predications of SNOs between LANDSAT-8 and NOAA-19
